Molokai, HI

2:23 AM HST on April 28, 2017 (GMT -1000)
Molokai

Weather History for PHMK - December, 2012

Change the Weather History Date:

Saturday, December 8, 2012

  Actual Average Record
Temperature  
Mean Temperature 75 °F -  
Max Temperature 84 °F 80 °F 85 °F (1980)
Min Temperature 66 °F 66 °F 55 °F (1986)
Cooling Degree Days 10    
Growing Degree Days 25 (Base 50)    
Moisture  
Dew Point 64 °F    
Average Humidity 70    
Maximum Humidity 78    
Minimum Humidity 49    
Precipitation  
Precipitation 0.00 in - - ()
Sea Level Pressure  
Sea Level Pressure 29.96 in    
Wind  
Wind Speed 8 mph (NE)    
Max Wind Speed 16 mph    
Max Gust Speed 28 mph    
Visibility 10 miles    
Events      
Averages and records for this station are not official NWS values.
T = Trace of Precipitation, MM = Missing Value Source: NWS Daily Summary

Daily Weather History Graph

Daily Weather History Graph

Search for Another Location

Airport or City:

Trip Planner

Search our weather history database for the weather conditions in past years. The results will help you decide how hot, cold, wet, or windy it might be!

Date:

Astronomy

Dec. 08, 2012 Rise Set
Actual Time 6:54 AM HST 5:47 PM HST
Civil Twilight 6:29 AM HST 6:11 PM HST
Nautical Twilight 6:02 AM HST 6:38 PM HST
Astronomical Twilight 5:35 AM HST 7:06 PM HST
Moon 2:01 AM HST (12/8) 1:57 PM HST (12/8)
Length of Visible Light 11h 41m
Length of Day
10h 53m
Waning Crescent, 26% of the Moon is Illuminated
Dec 8
Waning Crescent
Dec 12
New
Dec 19
First Quarter
Dec 28
Full
Jan 4
Last Quarter

Hourly Weather History & Observations

Time (HST) Temp. Heat Index Dew Point Humidity Pressure Visibility Wind Dir Wind Speed Gust Speed Precip Events Conditions
12:54 AM 71.1 °F - 64.0 °F 78% 29.96 in 10.0 mi NNW 8.1 mph - N/A   Clear
1:54 AM 71.1 °F - 64.0 °F 78% 29.95 in 10.0 mi North 4.6 mph - N/A   Clear
2:54 AM 70.0 °F - 62.1 °F 76% 29.93 in 10.0 mi NE 4.6 mph - N/A   Clear
3:54 AM 70.0 °F - 60.1 °F 71% 29.91 in 10.0 mi NE 4.6 mph - N/A   Clear
4:54 AM 66.0 °F - 59.0 °F 78% 29.93 in 10.0 mi Calm Calm - N/A   Clear
5:54 AM 71.1 °F - 63.0 °F 75% 29.94 in 10.0 mi East 4.6 mph - N/A   Clear
6:54 AM 72.0 °F - 63.0 °F 73% 29.96 in 10.0 mi NNE 5.8 mph - N/A   Clear
7:54 AM 73.9 °F - 66.0 °F 76% 30.00 in 10.0 mi North 5.8 mph - N/A   Partly Cloudy
8:54 AM 77.0 °F - 62.1 °F 60% 30.01 in 10.0 mi SE 5.8 mph - N/A   Clear
9:54 AM 80.1 °F 81.2 °F 62.1 °F 54% 30.01 in 10.0 mi East 3.5 mph - N/A   Scattered Clouds
10:54 AM 81.0 °F 83.0 °F 66.0 °F 60% 29.98 in 10.0 mi NNE 11.5 mph 19.6 mph N/A   Scattered Clouds
11:54 AM 79.0 °F - 64.0 °F 60% 29.96 in 10.0 mi NE 13.8 mph 18.4 mph N/A   Scattered Clouds
12:54 PM 84.0 °F 84.9 °F 63.0 °F 49% 29.92 in 10.0 mi North 8.1 mph - N/A   Scattered Clouds
1:54 PM 79.0 °F - 64.9 °F 62% 29.91 in 10.0 mi NNE 12.7 mph 18.4 mph N/A   Mostly Cloudy
2:54 PM 78.1 °F - 66.0 °F 66% 29.91 in 10.0 mi NE 13.8 mph 20.7 mph N/A   Scattered Clouds
3:54 PM 75.9 °F - 66.0 °F 71% 29.91 in 10.0 mi NE 15.0 mph 24.2 mph N/A   Scattered Clouds
4:54 PM 75.9 °F - 66.0 °F 71% 29.93 in 10.0 mi NE 12.7 mph 25.3 mph N/A   Partly Cloudy
5:54 PM 75.0 °F - 66.0 °F 73% 29.95 in 10.0 mi NE 10.4 mph - N/A   Clear
6:54 PM 73.9 °F - 66.0 °F 76% 29.97 in 10.0 mi NE 11.5 mph 17.3 mph N/A   Clear
8:54 PM 73.9 °F - 66.0 °F 76% 30.00 in 10.0 mi NE 16.1 mph 25.3 mph N/A   Overcast
9:54 PM 73.9 °F - 64.9 °F 73% 30.01 in 10.0 mi NE 13.8 mph 20.7 mph N/A   Clear
10:54 PM 73.0 °F - 64.9 °F 76% 30.01 in 10.0 mi NE 15.0 mph 27.6 mph N/A   Clear
11:54 PM 73.0 °F - 64.9 °F 76% 30.00 in 10.0 mi NE 12.7 mph 20.7 mph N/A   Clear